Location: Limerick
(52.6800°N, 8.6400°W)
Time: 16:28:44
(UTC+01:00)

ISS - All Passes

Search period start: 25 May 2015 00:00
Search period end: 04 June 2015 00:00
Orbit: 399 x 404 km, 51.6° (Epoch: 25 May)

Date Brightness Start Highest point End Pass type
(mag) Time Alt. Az. Time Alt. Az. Time Alt. Az.
25 May - 01:23:41 10° S 01:25:15 13° SE 01:26:54 10° ESE visible
25 May - 02:57:58 10° SW 03:01:06 43° SSE 03:04:14 10° E visible
25 May - 04:34:06 10° W 04:37:22 76° S 04:40:39 10° E visible
25 May - 06:10:29 10° W 06:13:39 47° SSW 06:16:49 10° SE daylight
25 May - 07:47:36 10° WSW 07:49:32 15° SW 07:51:25 10° S daylight
26 May - 02:05:04 10° SW 02:08:00 31° SSE 02:10:58 10° E visible
26 May - 03:40:55 10° WSW 03:44:10 71° S 03:47:26 10° E visible
26 May - 05:17:16 10° W 05:20:31 60° SSW 05:23:44 10° ESE daylight
26 May - 06:53:56 10° W 06:56:33 22° SSW 06:59:08 10° SSE daylight
27 May - 01:12:23 10° SSW 01:14:57 22° SSE 01:17:33 10° E visible
27 May - 02:47:46 10° WSW 02:50:59 60° SSE 02:54:13 10° E visible
27 May - 04:24:03 10° W 04:27:18 71° S 04:30:34 10° ESE visible
27 May - 06:00:31 10° W 06:03:29 31° SSW 06:06:26 10° SE daylight
28 May - 00:20:04 10° S 00:21:55 15° SE 00:23:51 10° ESE visible
28 May - 01:54:39 10° SW 01:57:48 47° SSE 02:00:58 10° E visible
28 May - 03:30:49 10° W 03:34:05 76° S 03:37:22 10° E visible
28 May - 05:07:13 10° W 05:10:21 43° SSW 05:13:29 10° SE daylight
28 May - 06:44:32 10° WSW 06:46:12 13° SW 06:47:47 10° S daylight
29 May - 01:01:41 10° SW 01:04:39 34° SSE 01:07:40 10° E visible
29 May - 02:37:36 10° W 02:40:51 73° S 02:44:07 10° E visible
29 May - 04:13:57 10° W 04:17:10 57° SSW 04:20:23 10° ESE visible
29 May - 05:50:41 10° W 05:53:10 20° SSW 05:55:37 10° SSE daylight
30 May - 00:08:52 10° SSW 00:11:33 24° SSE 00:14:15 10° E visible
30 May - 01:44:23 10° WSW 01:47:37 63° SSE 01:50:52 10° E visible
30 May - 03:20:41 10° W 03:23:56 69° S 03:27:12 10° ESE visible
30 May - 04:57:12 10° W 05:00:04 29° SSW 05:02:57 10° SE daylight
30 May - 23:16:24 10° S 23:18:28 16° SE 23:20:36 10° ESE visible
31 May - 00:51:14 10° WSW 00:54:23 50° SSE 00:57:34 10° E visible
31 May - 02:27:25 10° W 02:30:41 75° S 02:33:57 10° E visible
31 May - 04:03:50 10° W 04:06:55 40° SSW 04:10:01 10° SE visible
31 May - 05:41:26 10° WSW 05:42:44 12° SW 05:43:56 10° SSW daylight
31 May - 22:25:05 10° SE 22:25:26 10° SE 22:25:54 10° SE daylight
31 May - 23:58:09 10° SW 00:01:11 37° SSE 00:04:15 10° E visible
01 Jun - 01:34:09 10° W 01:37:25 74° S 01:40:40 10° E visible
01 Jun - 03:10:30 10° W 03:13:43 54° SSW 03:16:55 10° ESE visible
01 Jun - 04:47:20 10° W 04:49:40 18° SW 04:51:58 10° S daylight
01 Jun - 23:05:16 10° SSW 23:08:01 26° SSE 23:10:49 10° E visible
02 Jun - 00:40:53 10° WSW 00:44:07 66° S 00:47:22 10° E visible
02 Jun - 02:17:12 10° W 02:20:27 66° S 02:23:42 10° ESE visible
02 Jun - 03:53:45 10° W 03:56:33 26° SSW 03:59:21 10° SSE visible
02 Jun - 22:12:39 10° S 22:14:54 18° SE 22:17:12 10° E daylight
02 Jun - 23:47:40 10° WSW 23:50:51 53° SSE 23:54:03 10° E visible
03 Jun - 01:23:54 10° W 01:27:09 74° S 01:30:25 10° E visible
03 Jun - 03:00:19 10° W 03:03:22 37° SSW 03:06:26 10° SE visible
03 Jun - 04:38:27 10° SW 04:39:08 10° SW 04:39:44 10° SSW daylight
03 Jun - 21:20:43 10° SSE 21:21:49 11° SE 21:22:59 10° ESE daylight
03 Jun - 22:54:32 10° SW 22:57:36 40° SSE 23:00:41 10° E visible
